Time,TemperatureF,DewpointF,PressureIn,WindDirection,WindDirectionDegrees,WindSpeedMPH,WindSpeedGustMPH,Humidity,HourlyPrecipIn,Conditions,Clouds,dailyrainin,SoftwareType,DateUTC
2013-05-20 00:03:00,72.0,62.0,-100.00,SSE,158,5.0,7.0,70,0.00,,,0.00,,2013-05-20 04:03:00,
2013-05-20 00:13:00,71.0,62.0,-100.00,SSE,158,2.0,5.0,72,0.00,,,0.00,,2013-05-20 04:13:00,
2013-05-20 00:23:00,71.0,62.0,-100.00,SSE,158,2.0,5.0,72,0.00,,,0.00,,2013-05-20 04:23:00,
2013-05-20 00:33:00,71.0,62.0,-100.00,SSE,158,5.0,7.0,74,0.00,,,0.00,,2013-05-20 04:33:00,
2013-05-20 00:42:00,71.0,62.0,-100.00,SSE,158,5.0,7.0,74,0.00,,,0.00,,2013-05-20 04:42:00,
2013-05-20 00:53:00,71.0,62.0,-100.00,SE,135,2.0,9.0,74,0.00,,,0.00,,2013-05-20 04:53:00,
2013-05-20 01:02:00,70.0,62.0,-100.00,SSW,203,0.0,7.0,75,0.00,,,0.00,,2013-05-20 05:02:00,
2013-05-20 01:12:00,69.0,61.0,-100.00,SSE,158,2.0,5.0,75,0.00,,,0.00,,2013-05-20 05:12:00,
2013-05-20 01:22:00,69.0,61.0,-100.00,SSE,158,2.0,5.0,75,0.00,,,0.00,,2013-05-20 05:22:00,
2013-05-20 01:32:00,69.0,61.0,-100.00,SE,135,5.0,5.0,76,0.00,,,0.00,,2013-05-20 05:32:00,
2013-05-20 01:42:00,69.0,61.0,-100.00,SE,135,5.0,5.0,76,0.00,,,0.00,,2013-05-20 05:42:00,
2013-05-20 01:51:00,69.0,61.0,-100.00,SSE,158,3.0,6.0,77,0.00,,,0.00,,2013-05-20 05:51:00,
2013-05-20 02:01:00,69.0,62.0,-100.00,East,90,0.0,0.0,78,0.00,,,0.00,,2013-05-20 06:01:00,
2013-05-20 02:11:00,68.0,61.0,-100.00,East,90,1.0,0.0,79,0.00,,,0.00,,2013-05-20 06:11:00,
2013-05-20 02:21:00,68.0,61.0,-100.00,East,90,1.0,0.0,79,0.00,,,0.00,,2013-05-20 06:21:00,
2013-05-20 02:32:00,68.0,62.0,-100.00,East,90,0.0,0.0,80,0.00,,,0.00,,2013-05-20 06:32:00,
2013-05-20 02:42:00,68.0,62.0,-100.00,East,90,0.0,0.0,80,0.00,,,0.00,,2013-05-20 06:42:00,
2013-05-20 02:52:00,68.0,62.0,-100.00,South,180,0.0,0.0,80,0.00,,,0.00,,2013-05-20 06:52:00,
2013-05-20 03:02:00,68.0,62.0,-100.00,ESE,113,3.0,8.0,81,0.00,,,0.00,,2013-05-20 07:02:00,
2013-05-20 03:12:00,68.0,62.0,-100.00,ESE,113,3.0,8.0,81,0.00,,,0.00,,2013-05-20 07:12:00,
2013-05-20 03:21:00,68.0,62.0,-100.00,South,180,0.0,0.0,82,0.00,,,0.00,,2013-05-20 07:21:00,
2013-05-20 03:32:00,68.0,62.0,-100.00,SSE,158,2.0,3.0,82,0.00,,,0.00,,2013-05-20 07:32:00,
2013-05-20 03:42:00,68.0,62.0,-100.00,SSE,158,2.0,3.0,82,0.00,,,0.00,,2013-05-20 07:42:00,
2013-05-20 03:52:00,67.0,61.0,-100.00,SE,135,1.0,0.0,82,0.00,,,0.00,,2013-05-20 07:52:00,
2013-05-20 04:01:00,67.0,62.0,-100.00,SE,135,2.0,7.0,83,0.00,,,0.00,,2013-05-20 08:01:00,
2013-05-20 04:11:00,67.0,62.0,-100.00,SE,135,2.0,7.0,83,0.00,,,0.00,,2013-05-20 08:11:00,
2013-05-20 04:21:00,67.0,62.0,-100.00,SE,135,1.0,5.0,83,0.00,,,0.00,,2013-05-20 08:21:00,
2013-05-20 04:32:00,67.0,62.0,-100.00,East,90,0.0,0.0,84,0.00,,,0.00,,2013-05-20 08:32:00,
2013-05-20 04:42:00,67.0,62.0,-100.00,East,90,0.0,0.0,84,0.00,,,0.00,,2013-05-20 08:42:00,
2013-05-20 04:52:00,67.0,62.0,-100.00,East,90,2.0,6.0,84,0.00,,,0.00,,2013-05-20 08:52:00,
2013-05-20 05:02:00,67.0,62.0,-100.00,ESE,113,1.0,5.0,85,0.00,,,0.00,,2013-05-20 09:02:00,
2013-05-20 05:12:00,67.0,62.0,-100.00,ESE,113,1.0,5.0,85,0.00,,,0.00,,2013-05-20 09:12:00,
2013-05-20 05:21:00,67.0,63.0,-100.00,East,90,0.0,0.0,86,0.00,,,0.00,,2013-05-20 09:21:00,
2013-05-20 05:32:00,67.0,63.0,-100.00,South,180,0.0,5.0,86,0.00,,,0.00,,2013-05-20 09:32:00,
2013-05-20 05:43:00,67.0,63.0,-100.00,South,180,0.0,5.0,86,0.00,,,0.00,,2013-05-20 09:43:00,
2013-05-20 05:53:00,67.0,63.0,-100.00,SW,225,0.0,5.0,88,0.00,,,0.00,,2013-05-20 09:53:00,
2013-05-20 06:03:00,66.0,62.0,-100.00,SE,135,0.0,0.0,88,0.00,,,0.00,,2013-05-20 10:03:00,
2013-05-20 06:12:00,66.0,62.0,-100.00,SE,135,0.0,0.0,88,0.00,,,0.00,,2013-05-20 10:12:00,
2013-05-20 06:22:00,66.0,63.0,-100.00,ESE,113,0.0,0.0,90,0.00,,,0.00,,2013-05-20 10:22:00,
2013-05-20 06:33:00,65.0,62.0,-100.00,SE,135,1.0,6.0,90,0.00,,,0.00,,2013-05-20 10:33:00,
2013-05-20 06:42:00,65.0,62.0,-100.00,SE,135,1.0,6.0,90,0.00,,,0.00,,2013-05-20 10:42:00,
2013-05-20 06:52:00,66.0,63.0,-100.00,South,180,0.0,0.0,91,0.00,,,0.00,,2013-05-20 10:52:00,
2013-05-20 07:02:00,66.0,63.0,-100.00,ESE,113,1.0,6.0,91,0.00,,,0.00,,2013-05-20 11:02:00,
2013-05-20 07:12:00,66.0,63.0,-100.00,ESE,113,1.0,6.0,91,0.00,,,0.00,,2013-05-20 11:12:00,
2013-05-20 07:21:00,66.0,63.0,-100.00,ESE,113,2.0,6.0,91,0.00,,,0.00,,2013-05-20 11:21:00,
2013-05-20 07:32:00,68.0,65.0,-100.00,SE,135,2.0,6.0,90,0.00,,,0.00,,2013-05-20 11:32:00,
2013-05-20 07:42:00,68.0,65.0,-100.00,SE,135,2.0,6.0,90,0.00,,,0.00,,2013-05-20 11:42:00,
2013-05-20 07:52:00,68.0,64.0,-100.00,SE,135,6.0,8.0,88,0.00,,,0.00,,2013-05-20 11:52:00,
2013-05-20 08:01:00,69.0,65.0,-100.00,East,90,2.0,7.0,86,0.00,,,0.00,,2013-05-20 12:01:00,
2013-05-20 08:12:00,69.0,65.0,-100.00,East,90,2.0,7.0,86,0.00,,,0.00,,2013-05-20 12:12:00,
2013-05-20 08:21:00,69.0,64.0,-100.00,SE,135,1.0,6.0,85,0.00,,,0.00,,2013-05-20 12:21:00,
2013-05-20 08:32:00,71.0,66.0,-100.00,East,90,0.0,7.0,83,0.00,,,0.00,,2013-05-20 12:32:00,
2013-05-20 08:41:00,71.0,66.0,-100.00,East,90,0.0,7.0,83,0.00,,,0.00,,2013-05-20 12:41:00,
2013-05-20 08:52:00,71.0,65.0,-100.00,South,180,3.0,5.0,81,0.00,,,0.00,,2013-05-20 12:52:00,
2013-05-20 09:01:00,71.0,65.0,-100.00,SSE,158,5.0,6.0,80,0.00,,,0.00,,2013-05-20 13:01:00,
2013-05-20 09:11:00,72.0,65.0,-100.00,South,180,1.0,5.0,80,0.00,,,0.00,,2013-05-20 13:11:00,
2013-05-20 09:22:00,72.0,65.0,-100.00,South,180,1.0,5.0,80,0.00,,,0.00,,2013-05-20 13:22:00,
2013-05-20 09:31:00,73.0,66.0,-100.00,SE,135,1.0,6.0,78,0.00,,,0.00,,2013-05-20 13:31:00,
2013-05-20 09:41:00,74.0,66.0,-100.00,SSW,203,5.0,5.0,76,0.00,,,0.00,,2013-05-20 13:41:00,
2013-05-20 09:52:00,74.0,66.0,-100.00,SSW,203,5.0,5.0,76,0.00,,,0.00,,2013-05-20 13:52:00,
2013-05-20 10:01:00,73.0,66.0,-100.00,SSW,203,0.0,0.0,79,0.00,,,0.00,,2013-05-20 14:01:00,
2013-05-20 10:11:00,73.0,67.0,-100.00,South,180,3.0,5.0,81,0.00,,,0.00,,2013-05-20 14:11:00,
2013-05-20 10:22:00,73.0,67.0,-100.00,South,180,3.0,5.0,81,0.00,,,0.00,,2013-05-20 14:22:00,
2013-05-20 10:32:00,74.0,67.0,-100.00,SSE,158,1.0,3.0,80,0.00,,,0.00,,2013-05-20 14:32:00,
2013-05-20 10:42:00,75.0,68.0,-100.00,South,180,3.0,6.0,78,0.00,,,0.00,,2013-05-20 14:42:00,
2013-05-20 10:52:00,75.0,68.0,-100.00,South,180,3.0,6.0,78,0.00,,,0.00,,2013-05-20 14:52:00,
2013-05-20 11:01:00,77.0,67.0,-100.00,South,180,2.0,8.0,72,0.00,,,0.00,,2013-05-20 15:01:00,
2013-05-20 11:11:00,78.0,67.0,-100.00,ESE,113,5.0,7.0,70,0.00,,,0.00,,2013-05-20 15:11:00,
2013-05-20 11:21:00,78.0,67.0,-100.00,ESE,113,5.0,7.0,70,0.00,,,0.00,,2013-05-20 15:21:00,
2013-05-20 11:33:00,79.0,67.0,-100.00,SE,135,3.0,5.0,67,0.00,,,0.00,,2013-05-20 15:33:00,
2013-05-20 11:42:00,79.0,67.0,-100.00,ESE,113,0.0,0.0,67,0.00,,,0.00,,2013-05-20 15:42:00,
2013-05-20 11:53:00,79.0,67.0,-100.00,ESE,113,0.0,0.0,67,0.00,,,0.00,,2013-05-20 15:53:00,
2013-05-20 12:03:00,80.0,66.0,-100.00,South,180,6.0,14.0,63,0.00,,,0.00,,2013-05-20 16:03:00,
2013-05-20 12:13:00,81.0,68.0,-100.00,South,180,1.0,7.0,64,0.00,,,0.00,,2013-05-20 16:13:00,
2013-05-20 12:23:00,81.0,68.0,-100.00,South,180,1.0,7.0,64,0.00,,,0.00,,2013-05-20 16:23:00,
2013-05-20 12:33:00,82.0,66.0,-100.00,SSE,158,6.0,13.0,59,0.00,,,0.00,,2013-05-20 16:33:00,
2013-05-20 12:42:00,82.0,66.0,-100.00,SSE,158,6.0,13.0,59,0.00,,,0.00,,2013-05-20 16:42:00,
2013-05-20 12:53:00,82.0,65.0,-100.00,SSE,158,2.0,9.0,56,0.00,,,0.00,,2013-05-20 16:53:00,
2013-05-20 13:02:00,82.0,65.0,-100.00,South,180,6.0,9.0,56,0.00,,,0.00,,2013-05-20 17:02:00,
2013-05-20 13:12:00,83.0,65.0,-100.00,South,180,1.0,7.0,54,0.00,,,0.00,,2013-05-20 17:12:00,
2013-05-20 13:22:00,83.0,65.0,-100.00,South,180,1.0,7.0,54,0.00,,,0.00,,2013-05-20 17:22:00,
2013-05-20 13:33:00,83.0,64.0,-100.00,SSE,158,2.0,7.0,53,0.00,,,0.00,,2013-05-20 17:33:00,
2013-05-20 13:45:00,83.0,64.0,-100.00,SSE,158,2.0,7.0,53,0.00,,,0.00,,2013-05-20 17:45:00,
2013-05-20 13:53:00,82.0,65.0,-100.00,South,180,7.0,9.0,56,0.00,,,0.00,,2013-05-20 17:53:00,
2013-05-20 14:02:00,82.0,65.0,-100.00,South,180,6.0,9.0,57,0.00,,,0.00,,2013-05-20 18:02:00,
2013-05-20 14:12:00,83.0,65.0,-100.00,SSW,203,7.0,13.0,55,0.00,,,0.00,,2013-05-20 18:12:00,
2013-05-20 14:23:00,83.0,65.0,-100.00,SSW,203,7.0,13.0,55,0.00,,,0.00,,2013-05-20 18:23:00,
2013-05-20 14:32:00,84.0,62.0,-100.00,South,180,8.0,13.0,48,0.00,,,0.00,,2013-05-20 18:32:00,
2013-05-20 14:42:00,85.0,62.0,-100.00,SSE,158,8.0,12.0,47,0.00,,,0.00,,2013-05-20 18:42:00,
2013-05-20 14:55:00,85.0,62.0,-100.00,SSE,158,8.0,12.0,47,0.00,,,0.00,,2013-05-20 18:55:00,
2013-05-20 15:04:00,85.0,61.0,-100.00,South,180,5.0,5.0,45,0.00,,,0.00,,2013-05-20 19:04:00,
2013-05-20 15:11:00,85.0,62.0,-100.00,South,180,6.0,17.0,46,0.00,,,0.00,,2013-05-20 19:11:00,
2013-05-20 15:21:00,85.0,62.0,-100.00,South,180,6.0,17.0,46,0.00,,,0.00,,2013-05-20 19:21:00,
2013-05-20 15:32:00,85.0,61.0,-100.00,SE,135,6.0,12.0,44,0.00,,,0.00,,2013-05-20 19:32:00,
2013-05-20 15:42:00,86.0,61.0,-100.00,SSE,158,7.0,10.0,43,0.00,,,0.00,,2013-05-20 19:42:00,
2013-05-20 15:52:00,86.0,61.0,-100.00,SSE,158,7.0,10.0,43,0.00,,,0.00,,2013-05-20 19:52:00,
2013-05-20 16:01:00,87.0,60.0,-100.00,SSE,158,7.0,13.0,41,0.00,,,0.00,,2013-05-20 20:01:00,
2013-05-20 16:12:00,87.0,60.0,-100.00,SSW,203,7.0,10.0,41,0.00,,,0.00,,2013-05-20 20:12:00,
2013-05-20 16:21:00,87.0,60.0,-100.00,SSW,203,7.0,10.0,41,0.00,,,0.00,,2013-05-20 20:21:00,
2013-05-20 16:32:00,87.0,60.0,-100.00,South,180,6.0,9.0,40,0.00,,,0.00,,2013-05-20 20:32:00,
2013-05-20 16:42:00,88.0,60.0,-100.00,South,180,8.0,13.0,39,0.00,,,0.00,,2013-05-20 20:42:00,
2013-05-20 16:52:00,88.0,60.0,-100.00,South,180,8.0,13.0,39,0.00,,,0.00,,2013-05-20 20:52:00,
2013-05-20 17:01:00,87.0,59.0,-100.00,South,180,6.0,9.0,39,0.00,,,0.00,,2013-05-20 21:01:00,
2013-05-20 17:11:00,88.0,59.0,-100.00,South,180,7.0,14.0,38,0.00,,,0.00,,2013-05-20 21:11:00,
2013-05-20 17:21:00,88.0,59.0,-100.00,South,180,7.0,14.0,38,0.00,,,0.00,,2013-05-20 21:21:00,
2013-05-20 17:33:00,88.0,60.0,-100.00,South,180,6.0,9.0,39,0.00,,,0.00,,2013-05-20 21:33:00,
2013-05-20 17:43:00,87.0,59.0,-100.00,SW,225,8.0,12.0,39,0.00,,,0.00,,2013-05-20 21:43:00,
2013-05-20 17:53:00,87.0,59.0,-100.00,SW,225,8.0,12.0,39,0.00,,,0.00,,2013-05-20 21:53:00,
2013-05-20 18:02:00,87.0,59.0,-100.00,SSE,158,3.0,14.0,39,0.00,,,0.00,,2013-05-20 22:02:00,
2013-05-20 18:12:00,87.0,58.0,-100.00,SW,225,13.0,18.0,38,0.00,,,0.00,,2013-05-20 22:12:00,
2013-05-20 18:23:00,87.0,58.0,-100.00,SW,225,13.0,18.0,38,0.00,,,0.00,,2013-05-20 22:23:00,
2013-05-20 18:33:00,86.0,58.0,-100.00,South,180,6.0,10.0,39,0.00,,,0.00,,2013-05-20 22:33:00,
2013-05-20 18:42:00,86.0,58.0,-100.00,South,180,6.0,10.0,39,0.00,,,0.00,,2013-05-20 22:42:00,
2013-05-20 18:52:00,85.0,59.0,-100.00,SSW,203,6.0,7.0,41,0.00,,,0.00,,2013-05-20 22:52:00,
2013-05-20 19:03:00,79.0,59.0,-100.00,NNW,338,6.0,9.0,50,0.00,,,0.00,,2013-05-20 23:03:00,
2013-05-20 19:12:00,72.0,60.0,-100.00,WSW,248,9.0,16.0,65,0.00,,,0.00,,2013-05-20 23:12:00,
2013-05-20 19:22:00,72.0,60.0,-100.00,WSW,248,9.0,16.0,65,0.00,,,0.00,,2013-05-20 23:22:00,
2013-05-20 19:32:00,65.0,62.0,-100.00,South,180,5.0,6.0,89,0.00,,,0.00,,2013-05-20 23:32:00,
2013-05-20 19:42:00,65.0,62.0,-100.00,South,180,5.0,6.0,89,0.00,,,0.00,,2013-05-20 23:42:00,
2013-05-20 19:53:00,64.0,62.0,-100.00,South,180,0.0,0.0,93,0.00,,,0.00,,2013-05-20 23:53:00,
2013-05-20 20:01:00,64.0,63.0,-100.00,South,180,0.0,0.0,96,0.00,,,0.00,,2013-05-21 00:01:00,
2013-05-20 20:11:00,64.0,63.0,-100.00,South,180,0.0,0.0,97,0.00,,,0.00,,2013-05-21 00:11:00,
2013-05-20 20:21:00,64.0,63.0,-100.00,South,180,0.0,0.0,97,0.00,,,0.00,,2013-05-21 00:21:00,
2013-05-20 20:32:00,65.0,64.0,-100.00,South,180,0.0,0.0,98,0.00,,,0.00,,2013-05-21 00:32:00,
2013-05-20 20:42:00,65.0,65.0,-100.00,South,180,0.0,0.0,100,0.00,,,0.00,,2013-05-21 00:42:00,
2013-05-20 20:52:00,65.0,65.0,-100.00,South,180,0.0,0.0,100,0.00,,,0.00,,2013-05-21 00:52:00,
2013-05-20 21:01:00,65.0,65.0,-100.00,South,180,0.0,0.0,100,0.00,,,0.00,,2013-05-21 01:01:00,
2013-05-20 21:11:00,66.0,66.0,-100.00,South,180,0.0,0.0,100,0.00,,,0.00,,2013-05-21 01:11:00,
2013-05-20 21:22:00,66.0,66.0,-100.00,South,180,0.0,0.0,100,0.00,,,0.00,,2013-05-21 01:22:00,
2013-05-20 21:32:00,66.0,66.0,-100.00,South,180,0.0,0.0,100,0.00,,,0.00,,2013-05-21 01:32:00,
2013-05-20 21:42:00,66.0,66.0,-100.00,South,180,0.0,0.0,100,0.00,,,0.00,,2013-05-21 01:42:00,
2013-05-20 21:53:00,66.0,66.0,-100.00,South,180,0.0,0.0,100,0.00,,,0.00,,2013-05-21 01:53:00,
2013-05-20 22:02:00,66.0,66.0,-100.00,South,180,0.0,0.0,100,0.00,,,0.00,,2013-05-21 02:02:00,
2013-05-20 22:11:00,66.0,66.0,-100.00,South,180,0.0,0.0,100,0.00,,,0.00,,2013-05-21 02:11:00,
2013-05-20 22:21:00,66.0,66.0,-100.00,South,180,0.0,0.0,100,0.00,,,0.00,,2013-05-21 02:21:00,
2013-05-20 22:32:00,66.0,66.0,-100.00,South,180,0.0,0.0,100,0.00,,,0.00,,2013-05-21 02:32:00,
2013-05-20 22:42:00,65.0,65.0,-100.00,South,180,0.0,0.0,100,0.00,,,0.00,,2013-05-21 02:42:00,
2013-05-20 22:52:00,65.0,65.0,-100.00,South,180,0.0,0.0,100,0.00,,,0.00,,2013-05-21 02:52:00,
2013-05-20 23:02:00,65.0,65.0,-100.00,South,180,0.0,0.0,100,0.00,,,0.00,,2013-05-21 03:02:00,
2013-05-20 23:11:00,65.0,65.0,-100.00,South,180,0.0,0.0,100,0.00,,,0.00,,2013-05-21 03:11:00,
2013-05-20 23:21:00,65.0,65.0,-100.00,South,180,0.0,0.0,100,0.00,,,0.00,,2013-05-21 03:21:00,
2013-05-20 23:33:00,65.0,65.0,-100.00,South,180,0.0,0.0,100,0.00,,,0.00,,2013-05-21 03:33:00,
2013-05-20 23:43:00,65.0,65.0,-100.00,South,180,0.0,0.0,100,0.00,,,0.00,,2013-05-21 03:43:00,
2013-05-20 23:53:00,65.0,65.0,-100.00,South,180,0.0,0.0,100,0.00,,,0.00,,2013-05-21 03:53:00,